Regional Weather Roundup
Issued by NWS Jackson, KY

Home | Current Version | Previous Version | Graphics & Text | Print | Product List | Glossary On
Versions: 1 2 3 4 5 6 7 8 9 10 11 12 13 14 15 16 17 18 19 20 21 22 23 24 25 26 27 28 29 30 31 32 33 34 35 36 37 38 39 40 41 42 43 44 45 46 47 48 49 50
000
ASUS43 KJKL 220710
RWRJKL

EAST KENTUCKY HOURLY WEATHER ROUNDUP
NATIONAL WEATHER SERVICE JACKSON KY
300 AM EDT SUN OCT 22 2017

NOTE: "FAIR" INDICATES FEW OR NO CLOUDS BELOW 12,000 FEET WITH
NO SIGNIFICANT WEATHER AND/OR OBSTRUCTIONS TO VISIBILITY.

* THESE REPORTS ARE NOT UNDER NWS QUALITY CONTROL AND MAY NOT
  REPORT WEATHER SUCH AS PRECIPITATION AND FOG.

KYZ079-080-083-085-087-088-110-112-115-119-120-220800
...EASTERN KENTUCKY...

CITY           SKY/WX    TMP DP  RH WIND       PRES   REMARKS
JACKSON        CLOUDY    58  49  72 CALM      30.24R
LONDON         PTCLDY    49  47  93 CALM      30.23F
SOMERSET*      MOCLDY    54  50  87 CALM      30.25R
MONTICELLO*    PTCLDY    55  48  77 VRB6      30.24S
WILLIAMSBURG*  MOSUNNY   54  50  87 SE6       30.23F
MIDDLESBORO*   CLOUDY    49  49 100 CALM      30.27S
HARLAN APT*    MOSUNNY   61  45  55 CALM      30.27S
PIKE CO APT*     N/A     61  47  60 S3        30.24S
BIG SANDY APT* PTSUNNY   62  48  61 SE3       30.23F
MOREHEAD APT*  MOSUNNY   57  50  77 SE5       30.24R
$$

KYZ035-036-041-042-044-050-067-078-099-220800
...CENTRAL KENTUCKY...

CITY           SKY/WX    TMP DP  RH WIND       PRES   REMARKS
MT STERLING*   MOCLDY    50  48  93 SW3       30.24R
FLEMING/MASON* PTCLDY    57  50  77 SW3       30.23R
DANVILLE*      PTCLDY    55  46  71 S3        30.22S
LEXINGTON      MOCLDY    59  48  67 S7        30.22R
FRANKFORT      PTCLDY    52  47  83 CALM      30.19S
LOUISVILLE     MOCLDY    60  50  69 SE5       30.17R
LEBANON*         N/A     63  48  59 S10       30.20S
GLASGOW*       CLEAR     62  49  62 S6        30.17S
BOWLING GREEN  CLOUDY    54  52  93 CALM      30.16R
$$

KYZ091>093-OHZ055-061-077-WVZ005-015-034-035-042-220800
...SOUTHERN OHIO/WEST VIRGINIA...

CITY           SKY/WX    TMP DP  RH WIND       PRES   REMARKS
COVINGTON      PTCLDY    59  49  69 S5        30.19R
COLUMBUS       MOCLDY    59  51  75 CALM      30.21R
DAYTON         CLEAR     51  49  92 SE8       30.20S
WILMINGTON     PTCLDY    52  49  89 CALM      30.21R
HUNTINGTON     PTCLDY    53  50  89 E5        30.21S
CHARLESTON     PTCLDY    51  49  92 CALM      30.24F
PINEVILLE*     PTCLDY    48  45  91 MISG      30.34S
BECKLEY        CLEAR     56  47  71 SE6       30.31F
BLUEFIELD      CLEAR     59  45  59 S12G20    30.32F
LOGAN CO APT*    N/A     63  48  59 CALM      30.25F
$$

VAZ002-007-008-TNZ017-027-036-066-071-220800
...SOUTHWEST VIRGINIA/EAST TENNESSEE...

CITY           SKY/WX    TMP DP  RH WIND       PRES   REMARKS
WISE*          PTCLDY    59  46  63 S7        30.31S
JONESVILLE*      N/A     50  46  87 CALM      30.30S
ABINGDON*      CLEAR     57  48  72 CALM      30.32R
BRISTOL        PTCLDY    50  48  93 CALM      30.30S
MORRISTOWN*    SUNNY     59  45  58 CALM      30.26S
SEVIERVILLE*   SUNNY     48  48 100 CALM      30.26S
KNOXVILLE      CLOUDY    50  50 100 NE3       30.25S FOG
LAFOLLETTE*    SUNNY     48  48 100 CALM      30.29S
CROSSVILLE     PTCLDY    58  46  64 S5        30.25F
NASHVILLE      CLOUDY    65  54  67 S7        30.16S
$$

...KEY TO REMARKS...
VSB - VISIBILITY IN MILES
WCI - WIND CHILL INDEX
HX  - HEAT INDEX

$$



USA.gov is the U.S. government's official web portal to all federal, state and local government web resources and services.